Location: *
(33.3200°N, 8.3381°W)
Time: 01:19:07
(UTC+00:00)

Cosmos 2181 Rocket - Pass Details

Date: 09 April 2020
Orbit: 952 x 1014 km, 82.9° (Epoch: 06 June)

Event Time Altitude Azimuth Distance (km) Brightness Sun altitude
Exits shadow 21:12:48 26° 194° (SSW) 1,839 5.3 -26.8°
Maximum altitude 21:16:34 76° 276° (W) 1,006 4.0 -27.4°
Drops below altitude 10° 21:22:47 10° 2° (N) 2,708 6.7 -28.5°
Sets 21:25:17 0° 4° (N) 3,651 7.4 -28.9°
